Weather History for Concordia, KS

Change the Weather History Date:

Wednesday, January 22, 2014

  Actual Average Record
Temperature  
Mean Temperature 22 °F 29 °F  
Max Temperature 39 °F 39 °F 64 °F (2002)
Min Temperature 4 °F 19 °F -12 °F (1888)
Degree Days  
Heating Degree Days 43 36  
Month to date heating degree days 826 806  
Since 1 July heating degree days 3053 2983  
Cooling Degree Days 0 0  
Month to date cooling degree days 0 0  
Year to date cooling degree days 0 0  
Moisture  
Dew Point 9 °F    
Average Humidity 56    
Maximum Humidity 75    
Minimum Humidity 37    
Precipitation  
Precipitation 0.00 in 0.03 in 0.60 in (1982)
Month to date precipitation 0.21 0.37  
Year to date precipitation 0.21 0.37  
Snow  
Snow 0.00 in 0.20 in 2.00 in (2012)
Month to date snowfall 2.0 3.9  
Year to date snowfall 2.0 3.9  
Since 1 July snowfall 8.3 10.4  
Snow Depth 0.00 in    
Sea Level Pressure  
Sea Level Pressure 30.31 in    
Wind  
Wind Speed 16 mph (NNW)    
Max Wind Speed 30 mph    
Max Gust Speed 40 mph    
Visibility 10 miles    
Events      
T = Trace of Precipitation, MM = Missing Value Source: NWS Daily Summary

Daily Weather History Graph

Daily Weather History Graph

Search for Another Location

Airport:

Trip Planner

Search our weather history database for the weather conditions in past years. The results will help you decide how hot, cold, wet, or windy it might be!

Date:

Astronomy

Jan. 22, 2014 Rise Set
Actual Time 7:45 AM CST 5:39 PM CST
Civil Twilight 7:16 AM CST 6:08 PM CST
Nautical Twilight 6:44 AM CST 6:40 PM CST
Astronomical Twilight 6:12 AM CST 7:12 PM CST
Moon No Moon Rise 10:49 AM CST (1/22)
Length of Visible Light 10h 51m
Length of Day
9h 53m
Waning Gibbous, 65% of the Moon is Illuminated
Jan 22
Waning Gibbous
Jan 23
Last Quarter
Jan 30
New
Feb 6
First Quarter
Feb 14
Full

Hourly Weather History & Observations

Time (CST) Temp. Windchill Dew Point Humidity Pressure Visibility Wind Dir Wind Speed Gust Speed Precip Events Conditions
12:55 AM 16.0 °F 4.4 °F 8.1 °F 71% 30.17 in 10.0 mi West 9.2 mph - N/A   Clear
1:55 AM 18.0 °F 7.7 °F 8.1 °F 65% 30.16 in 10.0 mi West 8.1 mph - N/A   Clear
2:55 AM 19.9 °F 9.3 °F 9.0 °F 62% 30.17 in 10.0 mi West 9.2 mph - N/A   Partly Cloudy
3:55 AM 24.1 °F 13.7 °F 12.9 °F 62% 30.16 in 10.0 mi West 10.4 mph - N/A   Clear
4:55 AM 25.0 °F 16.3 °F 16.0 °F 69% 30.17 in 10.0 mi WNW 8.1 mph - N/A   Clear
5:55 AM 25.0 °F 15.5 °F 17.1 °F 72% 30.18 in 10.0 mi NW 9.2 mph - N/A   Partly Cloudy
6:55 AM 28.0 °F 19.3 °F 19.9 °F 72% 30.21 in 10.0 mi NNW 9.2 mph - N/A   Overcast
7:55 AM 28.0 °F 20.0 °F 19.9 °F 72% 30.23 in 10.0 mi NNW 8.1 mph - N/A   Mostly Cloudy
8:55 AM 28.9 °F 21.9 °F 21.0 °F 72% 30.25 in 10.0 mi NW 6.9 mph - N/A   Clear
9:55 AM 30.9 °F 21.2 °F 15.1 °F 52% 30.27 in 10.0 mi NNW 12.7 mph - N/A   Clear
10:55 AM 33.1 °F 24.4 °F 12.9 °F 43% 30.27 in 10.0 mi NW 11.5 mph - N/A   Clear
11:55 AM 36.0 °F 27.5 °F 12.0 °F 37% 30.24 in 10.0 mi NW 12.7 mph 19.6 mph N/A   Scattered Clouds
12:55 PM 37.9 °F 26.3 °F 14.0 °F 38% 30.23 in 10.0 mi NNW 26.5 mph 33.4 mph N/A   Mostly Cloudy
1:55 PM 37.9 °F 27.3 °F 15.1 °F 39% 30.22 in 10.0 mi NNW 21.9 mph 26.5 mph N/A   Overcast
2:55 PM 37.0 °F 26.7 °F 17.1 °F 44% 30.21 in 10.0 mi NNW 19.6 mph 25.3 mph N/A   Mostly Cloudy
3:55 PM 36.0 °F 25.0 °F 16.0 °F 44% 30.23 in 10.0 mi North 20.7 mph 29.9 mph N/A   Mostly Cloudy
4:55 PM 30.0 °F 16.9 °F 14.0 °F 51% 30.29 in 10.0 mi North 21.9 mph 29.9 mph N/A   Clear
5:55 PM 25.0 °F 9.5 °F 9.0 °F 51% 30.35 in 10.0 mi North 24.2 mph 31.1 mph N/A   Clear
6:55 PM 19.9 °F 1.8 °F 5.0 °F 52% 30.41 in 10.0 mi North 27.6 mph 38.0 mph N/A   Clear
7:55 PM 15.1 °F -3.7 °F -0.0 °F 51% 30.47 in 10.0 mi North 24.2 mph 33.4 mph N/A   Clear
8:55 PM 10.9 °F -8.8 °F -6.0 °F 47% 30.53 in 10.0 mi North 23.0 mph 27.6 mph N/A   Clear
9:55 PM 9.0 °F -11.4 °F -7.1 °F 48% 30.57 in 10.0 mi North 23.0 mph 27.6 mph N/A   Clear
10:55 PM 6.1 °F -12.8 °F -9.9 °F 48% 30.61 in 10.0 mi North 17.3 mph - N/A   Clear
11:55 PM 5.0 °F -15.2 °F -9.9 °F 50% 30.63 in 10.0 mi NNE 19.6 mph - N/A   Clear